Location: Landers
(34.2911°N, 116.3835°W)
Time: 06:54:52
(UTC-08:00)

N. Korean satellite - Visible Passes

Search period start: 27 November 2020 00:00
Search period end: 07 December 2020 00:00
Orbit: 452 x 504 km, 97.2° (Epoch: 26 November)

Date Brightness Start Highest point End Pass type
(mag) Time Alt. Az. Time Alt. Az. Time Alt. Az.
27 Nov 9.9 04:16:26 10° ENE 04:18:20 14° E 04:20:15 10° SE visible
27 Nov 7.5 05:48:34 10° NNW 05:51:39 27° WNW 05:54:46 10° SW visible
28 Nov 6.5 05:21:54 10° N 05:25:29 65° WNW 05:29:05 10° SSW visible
28 Nov 9.8 17:28:10 10° SW 17:30:04 14° W 17:31:59 10° WNW visible
29 Nov 7.5 04:55:42 10° NNE 04:59:13 49° E 05:02:45 10° S visible
29 Nov 8.5 17:00:34 10° SSW 17:03:39 33° W 17:06:47 10° NNW visible
30 Nov 9.2 04:30:01 10° NE 04:32:51 21° E 04:35:42 10° SSE visible
30 Nov 8.0 06:03:29 10° NNW 06:06:00 18° WNW 06:08:32 10° WSW visible
01 Dec 7.0 05:36:26 10° N 05:39:51 39° WNW 05:43:17 10° SW visible
02 Dec 6.6 05:09:57 10° NNE 05:13:36 83° ESE 05:17:16 10° S visible
02 Dec 9.5 17:15:26 10° SSW 17:18:03 21° W 17:20:42 10° NW visible
03 Dec 8.4 04:43:55 10° NNE 04:47:16 33° E 04:50:37 10° SSE visible
04 Dec 9.7 04:18:37 10° ENE 04:20:50 15° E 04:23:02 10° SE visible
04 Dec 7.6 05:51:04 10° NNW 05:54:07 25° WNW 05:57:11 10° SW visible
05 Dec 6.6 05:24:17 10° N 05:27:53 59° WNW 05:31:31 10° SSW visible
05 Dec 9.9 17:30:42 10° SW 17:32:24 13° W 17:34:08 10° WNW visible
06 Dec 7.3 04:57:58 10° NNE 05:01:34 55° E 05:05:11 10° S visible
06 Dec 8.7 17:02:52 10° SSW 17:05:55 30° W 17:09:00 10° NW visible
